| time (UTC) | temp F | wind direction | speed MPH | gust MPH | rain 1hr in | rain 24hr in | rain mn in | humidity % | barometer mb |
| 20260508151557 | 51 | 0 | 0.0 | 0.0 | 0.00 | 0.04 | 0.00 | 97 | 1031.2 |
| 20260508150056 | 51 | 0 | 0.0 | 0.0 | 0.00 | 0.04 | 0.00 | 97 | 1031.3 |
| 20260508144552 | 51 | 0 | 0.0 | 0.0 | 0.00 | 0.04 | 0.00 | 97 | 1031.4 |
| 20260508143059 | 51 | 0 | 0.0 | 0.0 | 0.00 | 0.04 | 0.00 | 97 | 1031.5 |
| 20260508141554 | 51 | 0 | 0.0 | 0.0 | 0.00 | 0.04 | 0.04 | 97 | 1031.6 |
| 20260508140106 | 51 | 0 | 0.0 | 0.0 | 0.00 | 0.04 | 0.04 | 97 | 1031.6 |
| 20260508134604 | 51 | 0 | 0.0 | 0.0 | 0.00 | 0.03 | 0.03 | 97 | 1031.8 |
| 20260508133054 | 51 | 0 | 0.0 | 0.0 | 0.00 | 0.03 | 0.03 | 97 | 1032.0 |
| 20260508131554 | 51 | 0 | 0.0 | 0.0 | 0.00 | 0.03 | 0.03 | 97 | 1032.1 |
| 20260508130057 | 51 | 0 | 0.0 | 0.0 | 0.00 | 0.03 | 0.03 | 97 | 1032.2 |
| 20260508124555 | 51 | 0 | 0.0 | 0.0 | 0.00 | 0.03 | 0.03 | 97 | 1032.3 |
| 20260508123054 | 51 | 0 | 0.0 | 0.0 | 0.00 | 0.03 | 0.03 | 97 | 1032.3 |
| 20260508121554 | 51 | 0 | 0.0 | 0.0 | 0.00 | 0.03 | 0.03 | 96 | 1032.2 |
| 20260508120059 | 51 | 0 | 0.0 | 0.0 | 0.01 | 0.03 | 0.03 | 96 | 1032.3 |
| 20260508114608 | 51 | 0 | 0.0 | 0.0 | 0.00 | 0.03 | 0.03 | 96 | 1032.4 |
| 20260508113105 | 51 | 0 | 0.0 | 0.0 | 0.00 | 0.03 | 0.03 | 96 | 1032.2 |
| 20260508111610 | 51 | 0 | 0.0 | 0.0 | 0.00 | 0.03 | 0.03 | 96 | 1032.2 |
| 20260508110100 | 51 | 0 | 0.0 | 0.0 | 0.00 | 0.02 | 0.02 | 96 | 1031.9 |
| 20260508104551 | 51 | 0 | 0.0 | 0.0 | 0.00 | 0.02 | 0.02 | 96 | 1031.8 |
| 20260508103053 | 51 | 0 | 0.0 | 0.0 | 0.00 | 0.02 | 0.02 | 95 | 1031.9 |
| 20260508101554 | 51 | 0 | 0.0 | 0.0 | 0.00 | 0.02 | 0.02 | 95 | 1031.9 |
| 20260508100055 | 51 | 0 | 0.0 | 0.0 | 0.00 | 0.02 | 0.02 | 95 | 1031.9 |
| 20260508094600 | 51 | 0 | 0.0 | 0.0 | 0.00 | 0.02 | 0.02 | 94 | 1031.9 |
| 20260508093101 | 51 | 0 | 0.0 | 0.0 | 0.00 | 0.02 | 0.02 | 94 | 1031.9 |
| 20260508091605 | 52 | 0 | 0.0 | 0.0 | 0.00 | 0.02 | 0.02 | 94 | 1031.9 |
| 20260508090100 | 52 | 0 | 0.0 | 0.0 | 0.00 | 0.02 | 0.02 | 93 | 1031.8 |
| 20260508084554 | 52 | 0 | 0.0 | 0.0 | 0.00 | 0.02 | 0.02 | 92 | 1031.8 |
| 20260508083111 | 52 | 0 | 0.0 | 0.0 | 0.00 | 0.02 | 0.02 | 91 | 1031.6 |
| 20260508081554 | 53 | 0 | 0.0 | 0.0 | 0.00 | 0.02 | 0.02 | 91 | 1031.6 |
| 20260508080100 | 53 | 0 | 0.0 | 0.0 | 0.00 | 0.02 | 0.02 | 90 | 1031.5 |
| 20260508074558 | 53 | 0 | 0.0 | 0.0 | 0.00 | 0.02 | 0.02 | 89 | 1031.4 |
| 20260508073052 | 54 | 0 | 0.0 | 0.0 | 0.00 | 0.02 | 0.02 | 88 | 1031.3 |
| 20260508071553 | 55 | 0 | 0.0 | 0.0 | 0.00 | 0.02 | 0.02 | 88 | 1031.3 |
| 20260508070057 | 54 | 0 | 0.0 | 0.0 | 0.00 | 0.02 | 0.02 | 89 | 1031.3 |
| 20260508064556 | 54 | 0 | 0.0 | 0.0 | 0.00 | 0.02 | 0.02 | 88 | 1031.1 |
| 20260508063049 | 55 | 0 | 0.0 | 0.0 | 0.00 | 0.02 | 0.02 | 88 | 1031.2 |
| 20260508061556 | 56 | 0 | 0.0 | 0.0 | 0.00 | 0.02 | 0.02 | 90 | 1031.0 |
| 20260508060053 | 55 | 0 | 0.0 | 0.0 | 0.00 | 0.02 | 0.02 | 92 | 1031.0 |
| 20260508054552 | 54 | 0 | 0.0 | 0.0 | 0.00 | 0.02 | 0.02 | 91 | 1031.0 |
| 20260508053100 | 56 | 0 | 0.0 | 0.0 | 0.00 | 0.02 | 0.02 | 91 | 1031.0 |
| 20260508051605 | 55 | 0 | 0.0 | 0.0 | 0.00 | 0.02 | 0.02 | 94 | 1030.7 |
| 20260508050055 | 55 | 0 | 0.0 | 0.0 | 0.00 | 0.02 | 0.02 | 92 | 1030.9 |
| 20260508044551 | 56 | 0 | 0.0 | 0.0 | 0.00 | 0.02 | 0.02 | 92 | 1030.9 |
| 20260508043054 | 56 | 0 | 0.0 | 0.0 | 0.00 | 0.02 | 0.02 | 93 | 1031.0 |
| 20260508041554 | 54 | 0 | 0.0 | 0.0 | 0.00 | 0.02 | 0.02 | 94 | 1031.1 |
| 20260508040053 | 55 | 0 | 0.0 | 0.0 | 0.00 | 0.02 | 0.02 | 94 | 1031.4 |
| 20260508034553 | 55 | 0 | 0.0 | 0.0 | 0.00 | 0.02 | 0.02 | 94 | 1031.4 |
| 20260508033100 | 54 | 0 | 0.0 | 0.0 | 0.00 | 0.02 | 0.02 | 95 | 1031.6 |
| 20260508031557 | 55 | 0 | 0.0 | 0.0 | 0.00 | 0.02 | 0.02 | 95 | 1031.6 |
| 20260508030057 | 54 | 0 | 0.0 | 0.0 | 0.00 | 0.02 | 0.02 | 96 | 1031.9 |
| 20260508024603 | 54 | 0 | 0.0 | 0.0 | 0.01 | 0.02 | 0.02 | 97 | 1032.3 |
| 20260508023056 | 54 | 0 | 0.0 | 0.0 | 0.02 | 0.02 | 0.02 | 96 | 1032.3 |
| 20260508021559 | 53 | 0 | 0.0 | 0.0 | 0.02 | 0.02 | 0.02 | 96 | 1032.4 |
| 20260508020051 | 54 | 0 | 0.0 | 0.0 | 0.01 | 0.01 | 0.01 | 96 | 1032.6 |
| 20260508014551 | 53 | 0 | 0.0 | 0.0 | 0.00 | 0.00 | 0.00 | 96 | 1032.7 |
| 20260508013057 | 53 | 0 | 0.0 | 0.0 | 0.00 | 0.00 | 0.00 | 96 | 1032.8 |
| 20260508011606 | 53 | 0 | 0.0 | 0.0 | 0.00 | 0.00 | 0.00 | 95 | 1032.7 |
| 20260508010055 | 53 | 0 | 0.0 | 0.0 | 0.00 | 0.00 | 0.00 | 95 | 1032.8 |
| 20260508004559 | 53 | 0 | 0.0 | 0.0 | 0.00 | 0.00 | 0.00 | 95 | 1032.7 |
| 20260508003059 | 52 | 0 | 0.0 | 0.0 | 0.00 | 0.00 | 0.00 | 95 | 1032.7 |
| 20260508001555 | 52 | 0 | 0.0 | 0.0 | 0.00 | 0.00 | 0.00 | 95 | 1032.6 |
| 20260508000056 | 52 | 0 | 0.0 | 0.0 | 0.00 | 0.00 | 0.00 | 94 | 1032.6 |
| 20260507234558 | 52 | 0 | 0.0 | 0.0 | 0.00 | 0.00 | 0.00 | 94 | 1032.5 |
| 20260507233053 | 51 | 0 | 0.0 | 0.0 | 0.00 | 0.00 | 0.00 | 94 | 1032.4 |
| 20260507231552 | 51 | 0 | 0.0 | 0.0 | 0.00 | 0.00 | 0.00 | 93 | 1032.3 |
| 20260507230051 | 51 | 0 | 0.0 | 0.0 | 0.00 | 0.00 | 0.00 | 93 | 1032.4 |
| 20260507224559 | 51 | 0 | 0.0 | 0.0 | 0.00 | 0.00 | 0.00 | 92 | 1032.2 |
| 20260507223108 | 51 | 0 | 0.0 | 0.0 | 0.00 | 0.00 | 0.00 | 92 | 1032.1 |
| 20260507221555 | 50 | 0 | 0.0 | 0.0 | 0.00 | 0.00 | 0.00 | 91 | 1032.0 |
| 20260507220056 | 50 | 0 | 0.0 | 0.0 | 0.00 | 0.00 | 0.00 | 91 | 1031.9 |
| 20260507214554 | 50 | 0 | 0.0 | 0.0 | 0.00 | 0.00 | 0.00 | 91 | 1031.5 |
| 20260507213054 | 50 | 0 | 0.0 | 0.0 | 0.00 | 0.00 | 0.00 | 92 | 1031.3 |
| 20260507211554 | 50 | 0 | 0.0 | 0.0 | 0.00 | 0.00 | 0.00 | 92 | 1031.2 |
| 20260507210051 | 50 | 0 | 0.0 | 0.0 | 0.00 | 0.00 | 0.00 | 92 | 1030.9 |
| 20260507204555 | 50 | 0 | 0.0 | 0.0 | 0.00 | 0.00 | 0.00 | 92 | 1031.0 |
| 20260507203053 | 50 | 0 | 0.0 | 0.0 | 0.00 | 0.00 | 0.00 | 92 | 1030.9 |
| 20260507201604 | 50 | 0 | 0.0 | 0.0 | 0.00 | 0.00 | 0.00 | 92 | 1030.9 |
| 20260507200057 | 50 | 0 | 0.0 | 0.0 | 0.00 | 0.00 | 0.00 | 93 | 1030.9 |
| 20260507194554 | 50 | 0 | 0.0 | 0.0 | 0.00 | 0.00 | 0.00 | 93 | 1031.0 |
| 20260507193054 | 49 | 0 | 0.0 | 0.0 | 0.00 | 0.00 | 0.00 | 93 | 1031.0 |
| 20260507191553 | 49 | 0 | 0.0 | 0.0 | 0.00 | 0.00 | 0.00 | 93 | 1031.0 |
| 20260507190052 | 49 | 0 | 0.0 | 0.0 | 0.00 | 0.00 | 0.00 | 93 | 1031.1 |
| 20260507184551 | 49 | 0 | 0.0 | 0.0 | 0.00 | 0.00 | 0.00 | 92 | 1030.9 |
| 20260507183054 | 49 | 0 | 0.0 | 0.0 | 0.00 | 0.00 | 0.00 | 92 | 1031.0 |
| 20260507181553 | 49 | 0 | 0.0 | 0.0 | 0.00 | 0.00 | 0.00 | 92 | 1030.9 |
| 20260507180052 | 49 | 0 | 0.0 | 0.0 | 0.00 | 0.00 | 0.00 | 93 | 1031.0 |
| 20260507174604 | 49 | 0 | 0.0 | 0.0 | 0.00 | 0.00 | 0.00 | 93 | 1031.1 |
| 20260507173059 | 49 | 0 | 0.0 | 0.0 | 0.00 | 0.00 | 0.00 | 93 | 1031.0 |
| 20260507171604 | 49 | 0 | 0.0 | 0.0 | 0.00 | 0.00 | 0.00 | 93 | 1031.1 |
| 20260507170057 | 49 | 0 | 0.0 | 0.0 | 0.00 | 0.00 | 0.00 | 93 | 1031.3 |
| 20260507164553 | 49 | 0 | 0.0 | 0.0 | 0.00 | 0.00 | 0.00 | 92 | 1031.2 |
| 20260507163119 | 49 | 0 | 0.0 | 0.0 | 0.00 | 0.00 | 0.00 | 92 | 1031.2 |
| 20260507161557 | 49 | 0 | 0.0 | 0.0 | 0.00 | 0.00 | 0.00 | 91 | 1031.5 |
| 20260507160053 | 49 | 0 | 0.0 | 0.0 | 0.00 | 0.00 | 0.00 | 91 | 1031.5 |
| 20260507154555 | 49 | 0 | 0.0 | 0.0 | 0.00 | 0.00 | 0.00 | 90 | 1031.6 |
| 20260507153056 | 49 | 0 | 0.0 | 0.0 | 0.00 | 0.00 | 0.00 | 89 | 1031.6 |